Time,TemperatureF,DewpointF,PressureIn,WindDirection,WindDirectionDegrees,WindSpeedMPH,WindSpeedGustMPH,Humidity,HourlyPrecipIn,Conditions,Clouds,dailyrainin,SoftwareType,DateUTC
2013-02-18 00:00:00,39.1,23.4,30.22,NW,306,3.0,3.0,53,0.00,,,0.00,Wunderground v.1.15,2013-02-18 05:00:00,
2013-02-18 00:02:00,38.9,23.7,30.22,WNW,289,4.0,6.0,54,0.00,,,0.00,Wunderground v.1.15,2013-02-18 05:02:00,
2013-02-18 00:04:00,38.8,24.9,30.22,WNW,288,4.0,6.0,57,0.00,,,0.00,Wunderground v.1.15,2013-02-18 05:04:00,
2013-02-18 00:10:00,38.5,25.8,30.22,WNW,282,3.0,3.0,60,0.00,,,0.00,Wunderground v.1.15,2013-02-18 05:10:00,
2013-02-18 00:16:00,38.0,23.7,30.22,West,280,2.0,3.0,56,0.00,,,0.00,Wunderground v.1.15,2013-02-18 05:16:00,
2013-02-18 00:20:00,37.8,24.3,30.22,WNW,287,2.0,2.0,58,0.00,,,0.00,Wunderground v.1.15,2013-02-18 05:20:00,
2013-02-18 00:26:00,37.6,24.6,30.22,WNW,287,1.0,3.0,59,0.00,,,0.00,Wunderground v.1.15,2013-02-18 05:26:00,
2013-02-18 00:32:00,37.6,25.4,30.22,West,277,3.0,4.0,61,0.00,,,0.00,Wunderground v.1.15,2013-02-18 05:32:00,
2013-02-18 00:38:00,37.6,24.1,30.22,West,281,4.0,4.0,58,0.00,,,0.00,Wunderground v.1.15,2013-02-18 05:38:00,
2013-02-18 00:44:00,37.8,24.7,30.23,NW,304,4.0,6.0,59,0.00,,,0.00,Wunderground v.1.15,2013-02-18 05:44:00,
2013-02-18 00:50:00,37.9,23.6,30.23,West,261,4.0,4.0,56,0.00,,,0.00,Wunderground v.1.15,2013-02-18 05:50:00,
2013-02-18 00:56:00,38.2,24.7,30.23,NW,306,4.0,6.0,58,0.00,,,0.00,Wunderground v.1.15,2013-02-18 05:56:00,
2013-02-18 01:02:00,38.2,24.7,30.23,West,264,3.0,4.0,58,0.00,,,0.00,Wunderground v.1.15,2013-02-18 06:02:00,
2013-02-18 01:08:00,38.5,23.7,30.23,West,268,3.0,4.0,55,0.00,,,0.00,Wunderground v.1.15,2013-02-18 06:08:00,
2013-02-18 01:14:00,38.6,23.8,30.23,West,278,5.0,7.0,55,0.00,,,0.00,Wunderground v.1.15,2013-02-18 06:14:00,
2013-02-18 01:20:00,38.5,24.1,30.23,West,281,5.0,6.0,56,0.00,,,0.00,Wunderground v.1.15,2013-02-18 06:20:00,
2013-02-18 01:26:00,38.9,24.1,30.23,WNW,291,5.0,7.0,55,0.00,,,0.00,Wunderground v.1.15,2013-02-18 06:26:00,
2013-02-18 01:32:00,38.5,24.6,30.23,West,275,5.0,5.0,57,0.00,,,0.00,Wunderground v.1.15,2013-02-18 06:32:00,
2013-02-18 01:38:00,38.3,24.8,30.23,West,274,5.0,7.0,58,0.00,,,0.00,Wunderground v.1.15,2013-02-18 06:38:00,
2013-02-18 01:44:00,38.3,25.6,30.23,WNW,287,5.0,7.0,60,0.00,,,0.00,Wunderground v.1.15,2013-02-18 06:44:00,
2013-02-18 01:50:00,37.9,25.2,30.23,WNW,289,6.0,6.0,60,0.00,,,0.00,Wunderground v.1.15,2013-02-18 06:50:00,
2013-02-18 01:56:00,37.9,26.4,30.23,NW,304,6.0,7.0,63,0.00,,,0.00,Wunderground v.1.15,2013-02-18 06:56:00,
2013-02-18 02:02:00,37.9,26.4,30.23,West,277,4.0,5.0,63,0.00,,,0.00,Wunderground v.1.15,2013-02-18 07:02:00,
2013-02-18 02:08:00,37.8,26.7,30.23,WNW,295,2.0,5.0,64,0.00,,,0.00,Wunderground v.1.15,2013-02-18 07:08:00,
2013-02-18 02:14:00,37.6,26.5,30.23,WNW,282,2.0,2.0,64,0.00,,,0.00,Wunderground v.1.15,2013-02-18 07:14:00,
2013-02-18 02:20:00,37.5,26.0,30.23,West,281,2.0,2.0,63,0.00,,,0.00,Wunderground v.1.15,2013-02-18 07:20:00,
2013-02-18 02:26:00,37.2,26.1,30.23,WNW,287,2.0,2.0,64,0.00,,,0.00,Wunderground v.1.15,2013-02-18 07:26:00,
2013-02-18 02:32:00,36.8,26.5,30.23,West,274,2.0,2.0,66,0.00,,,0.00,Wunderground v.1.15,2013-02-18 07:32:00,
2013-02-18 02:38:00,36.9,27.7,30.23,WNW,294,2.0,3.0,69,0.00,,,0.00,Wunderground v.1.15,2013-02-18 07:38:00,
2013-02-18 02:44:00,36.9,27.0,30.23,WNW,291,2.0,4.0,67,0.00,,,0.00,Wunderground v.1.15,2013-02-18 07:44:00,
2013-02-18 02:50:00,37.3,28.8,30.23,WNW,289,3.0,3.0,71,0.00,,,0.00,Wunderground v.1.15,2013-02-18 07:50:00,
2013-02-18 02:56:00,37.6,28.7,30.23,WNW,294,3.0,3.0,70,0.00,,,0.00,Wunderground v.1.15,2013-02-18 07:56:00,
2013-02-18 03:02:00,37.9,29.7,30.23,WNW,295,3.0,4.0,72,0.00,,,0.00,Wunderground v.1.15,2013-02-18 08:02:00,
2013-02-18 03:08:00,38.2,29.6,30.23,WNW,301,3.0,5.0,71,0.00,,,0.00,Wunderground v.1.15,2013-02-18 08:08:00,
2013-02-18 03:14:00,38.6,30.4,30.23,WNW,282,4.0,5.0,72,0.00,,,0.00,Wunderground v.1.15,2013-02-18 08:14:00,
2013-02-18 03:20:00,38.9,29.6,30.23,WNW,292,5.0,5.0,69,0.00,,,0.00,Wunderground v.1.15,2013-02-18 08:20:00,
2013-02-18 03:26:00,38.8,28.8,30.23,WNW,295,3.0,5.0,67,0.00,,,0.00,Wunderground v.1.15,2013-02-18 08:26:00,
2013-02-18 03:32:00,38.9,29.6,30.23,WNW,289,4.0,6.0,69,0.00,,,0.00,Wunderground v.1.15,2013-02-18 08:32:00,
2013-02-18 03:38:00,38.9,29.2,30.23,WNW,294,5.0,6.0,68,0.00,,,0.00,Wunderground v.1.15,2013-02-18 08:38:00,
2013-02-18 03:44:00,38.6,28.6,30.24,WNW,285,4.0,6.0,67,0.00,,,0.00,Wunderground v.1.15,2013-02-18 08:44:00,
2013-02-18 03:50:00,38.2,27.5,30.24,WNW,282,4.0,4.0,65,0.00,,,0.00,Wunderground v.1.15,2013-02-18 08:50:00,
2013-02-18 03:56:00,38.3,28.7,30.24,WNW,299,4.0,5.0,68,0.00,,,0.00,Wunderground v.1.15,2013-02-18 08:56:00,
2013-02-18 04:02:00,38.2,27.5,30.23,West,278,5.0,5.0,65,0.00,,,0.00,Wunderground v.1.15,2013-02-18 09:02:00,
2013-02-18 04:08:00,38.2,27.8,30.23,West,275,4.0,5.0,66,0.00,,,0.00,Wunderground v.1.15,2013-02-18 09:08:00,
2013-02-18 04:14:00,37.9,27.2,30.24,West,272,3.0,4.0,65,0.00,,,0.00,Wunderground v.1.15,2013-02-18 09:14:00,
2013-02-18 04:20:00,37.8,27.5,30.24,WNW,294,3.0,3.0,66,0.00,,,0.00,Wunderground v.1.15,2013-02-18 09:20:00,
2013-02-18 04:26:00,37.6,27.3,30.24,WNW,287,3.0,4.0,66,0.00,,,0.00,Wunderground v.1.15,2013-02-18 09:26:00,
2013-02-18 04:32:00,37.8,27.1,30.24,NW,305,3.0,10.0,65,0.00,,,0.00,Wunderground v.1.15,2013-02-18 09:32:00,
2013-02-18 04:38:00,37.6,28.0,30.24,WNW,298,5.0,10.0,68,0.00,,,0.00,Wunderground v.1.15,2013-02-18 09:38:00,
2013-02-18 04:44:00,37.8,28.2,30.25,WNW,298,5.0,5.0,68,0.00,,,0.00,Wunderground v.1.15,2013-02-18 09:44:00,
2013-02-18 04:50:00,37.6,28.0,30.25,NW,306,4.0,8.0,68,0.00,,,0.00,Wunderground v.1.15,2013-02-18 09:50:00,
2013-02-18 04:56:00,37.8,28.9,30.25,WNW,295,5.0,8.0,70,0.00,,,0.00,Wunderground v.1.15,2013-02-18 09:56:00,
2013-02-18 05:02:00,37.6,27.3,30.25,NW,306,5.0,5.0,66,0.00,,,0.00,Wunderground v.1.15,2013-02-18 10:02:00,
2013-02-18 05:08:00,37.2,27.2,30.25,NW,306,3.0,5.0,67,0.00,,,0.00,Wunderground v.1.15,2013-02-18 10:08:00,
2013-02-18 05:14:00,37.3,27.7,30.25,WNW,302,3.0,3.0,68,0.00,,,0.00,Wunderground v.1.15,2013-02-18 10:14:00,
2013-02-18 05:20:00,37.0,26.3,30.25,NW,305,2.0,2.0,65,0.00,,,0.00,Wunderground v.1.15,2013-02-18 10:20:00,
2013-02-18 05:26:00,36.9,27.0,30.25,NW,311,1.0,2.0,67,0.00,,,0.00,Wunderground v.1.15,2013-02-18 10:26:00,
2013-02-18 05:32:00,36.8,27.9,30.26,NW,308,1.0,1.0,70,0.00,,,0.00,Wunderground v.1.15,2013-02-18 10:32:00,
2013-02-18 05:38:00,37.0,28.5,30.26,NW,308,1.0,3.0,71,0.00,,,0.00,Wunderground v.1.15,2013-02-18 10:38:00,
2013-02-18 05:44:00,37.3,29.1,30.27,WNW,292,2.0,4.0,72,0.00,,,0.00,Wunderground v.1.15,2013-02-18 10:44:00,
2013-02-18 05:50:00,36.9,29.1,30.27,WNW,296,3.0,3.0,73,0.00,,,0.00,Wunderground v.1.15,2013-02-18 10:50:00,
2013-02-18 05:56:00,36.9,29.1,30.27,NW,311,2.0,3.0,73,0.00,,,0.00,Wunderground v.1.15,2013-02-18 10:56:00,
2013-02-18 06:02:00,37.2,29.3,30.27,NW,311,2.0,4.0,73,0.00,,,0.00,Wunderground v.1.15,2013-02-18 11:02:00,
2013-02-18 06:08:00,37.3,29.4,30.27,NW,306,3.0,6.0,73,0.00,,,0.00,Wunderground v.1.15,2013-02-18 11:08:00,
2013-02-18 06:14:00,37.3,28.8,30.28,NW,304,3.0,3.0,71,0.00,,,0.00,Wunderground v.1.15,2013-02-18 11:14:00,
2013-02-18 06:20:00,37.3,29.4,30.28,NW,312,3.0,6.0,73,0.00,,,0.00,Wunderground v.1.15,2013-02-18 11:20:00,
2013-02-18 06:26:00,37.3,29.1,30.28,WNW,298,4.0,6.0,72,0.00,,,0.00,Wunderground v.1.15,2013-02-18 11:26:00,
2013-02-18 06:32:00,37.5,28.9,30.28,WNW,302,4.0,5.0,71,0.00,,,0.00,Wunderground v.1.15,2013-02-18 11:32:00,
2013-02-18 06:38:00,37.5,29.3,30.28,NW,312,4.0,7.0,72,0.00,,,0.00,Wunderground v.1.15,2013-02-18 11:38:00,
2013-02-18 06:44:00,37.5,28.9,30.28,NW,309,5.0,6.0,71,0.00,,,0.00,Wunderground v.1.15,2013-02-18 11:44:00,
2013-02-18 06:50:00,37.5,28.2,30.28,NW,318,4.0,4.0,69,0.00,,,0.00,Wunderground v.1.15,2013-02-18 11:50:00,
2013-02-18 06:56:00,37.6,28.7,30.28,NW,318,4.0,6.0,70,0.00,,,0.00,Wunderground v.1.15,2013-02-18 11:56:00,
2013-02-18 07:02:00,37.2,28.3,30.29,WNW,301,3.0,5.0,70,0.00,,,0.00,Wunderground v.1.15,2013-02-18 12:02:00,
2013-02-18 07:08:00,36.3,28.5,30.29,WNW,292,1.0,5.0,73,0.00,,,0.00,Wunderground v.1.15,2013-02-18 12:08:00,
2013-02-18 07:14:00,35.9,28.4,30.30,WNW,282,2.0,2.0,74,0.00,,,0.00,Wunderground v.1.15,2013-02-18 12:14:00,
2013-02-18 07:20:00,36.3,28.8,30.30,NW,305,2.0,3.0,74,0.00,,,0.00,Wunderground v.1.15,2013-02-18 12:20:00,
2013-02-18 07:26:00,36.3,29.5,30.30,WNW,295,2.0,3.0,76,0.00,,,0.00,Wunderground v.1.15,2013-02-18 12:26:00,
2013-02-18 07:32:00,35.8,28.3,30.30,WNW,295,2.0,2.0,74,0.00,,,0.00,Wunderground v.1.15,2013-02-18 12:32:00,
2013-02-18 07:38:00,36.2,29.0,30.30,WNW,295,2.0,2.0,75,0.00,,,0.00,Wunderground v.1.15,2013-02-18 12:38:00,
2013-02-18 07:44:00,36.3,29.5,30.31,WNW,302,2.0,2.0,76,0.00,,,0.00,Wunderground v.1.15,2013-02-18 12:44:00,
2013-02-18 07:50:00,37.0,29.8,30.31,NW,316,2.0,2.0,75,0.00,,,0.00,Wunderground v.1.15,2013-02-18 12:50:00,
2013-02-18 07:56:00,37.5,30.0,30.31,NW,304,2.0,2.0,74,0.00,,,0.00,Wunderground v.1.15,2013-02-18 12:56:00,
2013-02-18 08:02:00,37.8,29.2,30.31,NW,311,1.0,2.0,71,0.00,,,0.00,Wunderground v.1.15,2013-02-18 13:02:00,
2013-02-18 08:08:00,37.3,30.1,30.31,West,271,2.0,2.0,75,0.00,,,0.00,Wunderground v.1.15,2013-02-18 13:08:00,
2013-02-18 08:14:00,37.2,29.7,30.31,NW,305,2.0,2.0,74,0.00,,,0.00,Wunderground v.1.15,2013-02-18 13:14:00,
2013-02-18 08:20:00,37.6,29.7,30.31,WNW,291,2.0,2.0,73,0.00,,,0.00,Wunderground v.1.15,2013-02-18 13:20:00,
2013-02-18 08:26:00,37.9,30.4,30.31,NW,313,4.0,6.0,74,0.00,,,0.00,Wunderground v.1.15,2013-02-18 13:26:00,
2013-02-18 08:32:00,38.5,31.3,30.32,NW,312,5.0,5.0,75,0.00,,,0.00,Wunderground v.1.15,2013-02-18 13:32:00,
2013-02-18 08:38:00,39.1,31.2,30.32,NW,322,4.0,5.0,73,0.00,,,0.00,Wunderground v.1.15,2013-02-18 13:38:00,
2013-02-18 08:44:00,39.3,31.0,30.32,NW,312,4.0,5.0,72,0.00,,,0.00,Wunderground v.1.15,2013-02-18 13:44:00,
2013-02-18 08:50:00,39.5,30.9,30.32,NW,306,3.0,5.0,71,0.00,,,0.00,Wunderground v.1.15,2013-02-18 13:50:00,
2013-02-18 08:56:00,39.8,31.5,30.32,NW,312,4.0,5.0,72,0.00,,,0.00,Wunderground v.1.15,2013-02-18 13:56:00,
2013-02-18 09:02:00,40.3,31.6,30.32,NW,326,5.0,5.0,71,0.00,,,0.00,Wunderground v.1.15,2013-02-18 14:02:00,
2013-02-18 09:08:00,40.9,31.9,30.32,NW,323,4.0,5.0,70,0.00,,,0.00,Wunderground v.1.15,2013-02-18 14:08:00,
2013-02-18 09:14:00,41.3,30.0,30.32,North,353,4.0,5.0,64,0.00,,,0.00,Wunderground v.1.15,2013-02-18 14:14:00,
2013-02-18 09:20:00,42.1,30.0,30.32,North,356,3.0,3.0,62,0.00,,,0.00,Wunderground v.1.15,2013-02-18 14:20:00,
2013-02-18 09:26:00,42.8,30.3,30.32,NNE,28,2.0,3.0,61,0.00,,,0.00,Wunderground v.1.15,2013-02-18 14:26:00,
2013-02-18 09:32:00,43.2,31.4,30.32,NNE,14,1.0,3.0,63,0.00,,,0.00,Wunderground v.1.15,2013-02-18 14:32:00,
2013-02-18 09:38:00,43.3,31.5,30.32,NNE,14,1.0,3.0,63,0.00,,,0.00,Wunderground v.1.15,2013-02-18 14:38:00,
2013-02-18 09:44:00,43.5,31.7,30.33,NNE,13,1.0,1.0,63,0.00,,,0.00,Wunderground v.1.15,2013-02-18 14:44:00,
2013-02-18 09:50:00,44.3,32.1,30.33,NNE,13,1.0,1.0,62,0.00,,,0.00,Wunderground v.1.15,2013-02-18 14:50:00,
2013-02-18 09:56:00,45.5,29.8,30.33,NE,48,1.0,1.0,54,0.00,,,0.00,Wunderground v.1.15,2013-02-18 14:56:00,
2013-02-18 10:02:00,46.8,30.1,30.33,ESE,114,0.0,0.0,52,0.00,,,0.00,Wunderground v.1.15,2013-02-18 15:02:00,
2013-02-18 10:08:00,47.6,30.3,30.33,East,89,0.0,0.0,51,0.00,,,0.00,Wunderground v.1.15,2013-02-18 15:08:00,
2013-02-18 10:14:00,48.2,29.4,30.33,East,83,0.0,2.0,48,0.00,,,0.00,Wunderground v.1.15,2013-02-18 15:14:00,
2013-02-18 10:20:00,48.0,29.7,30.33,East,100,1.0,1.0,49,0.00,,,0.00,Wunderground v.1.15,2013-02-18 15:20:00,
2013-02-18 10:26:00,48.2,30.9,30.33,East,85,1.0,2.0,51,0.00,,,0.00,Wunderground v.1.15,2013-02-18 15:26:00,
2013-02-18 10:32:00,48.5,30.7,30.33,ESE,102,1.0,2.0,50,0.00,,,0.00,Wunderground v.1.15,2013-02-18 15:32:00,
2013-02-18 10:38:00,49.1,29.7,30.33,ESE,116,2.0,2.0,47,0.00,,,0.00,Wunderground v.1.15,2013-02-18 15:38:00,
2013-02-18 10:44:00,49.1,29.7,30.33,ESE,123,2.0,2.0,47,0.00,,,0.00,Wunderground v.1.15,2013-02-18 15:44:00,
2013-02-18 10:50:00,48.9,30.1,30.33,ESE,109,2.0,3.0,48,0.00,,,0.00,Wunderground v.1.15,2013-02-18 15:50:00,
2013-02-18 10:56:00,48.8,29.4,30.33,SE,137,2.0,3.0,47,0.00,,,0.00,Wunderground v.1.15,2013-02-18 15:56:00,
2013-02-18 11:02:00,49.2,29.8,30.33,SE,126,3.0,4.0,47,0.00,,,0.00,Wunderground v.1.15,2013-02-18 16:02:00,
2013-02-18 11:08:00,49.1,28.7,30.33,SSE,147,2.0,4.0,45,0.00,,,0.00,Wunderground v.1.15,2013-02-18 16:08:00,
2013-02-18 11:14:00,49.4,28.9,30.33,ESE,104,2.0,3.0,45,0.00,,,0.00,Wunderground v.1.15,2013-02-18 16:14:00,
2013-02-18 11:20:00,49.2,30.3,30.33,SSE,150,3.0,3.0,48,0.00,,,0.00,Wunderground v.1.15,2013-02-18 16:20:00,
2013-02-18 11:26:00,49.2,27.6,30.33,East,97,3.0,3.0,43,0.00,,,0.00,Wunderground v.1.15,2013-02-18 16:26:00,
2013-02-18 11:32:00,49.4,28.9,30.33,ESE,109,3.0,6.0,45,0.00,,,0.00,Wunderground v.1.15,2013-02-18 16:32:00,
2013-02-18 11:38:00,49.4,32.5,30.33,SE,134,4.0,6.0,52,0.00,,,0.00,Wunderground v.1.15,2013-02-18 16:38:00,
2013-02-18 11:44:00,49.2,30.3,30.33,East,100,4.0,10.0,48,0.00,,,0.00,Wunderground v.1.15,2013-02-18 16:44:00,
2013-02-18 11:50:00,49.8,30.9,30.33,ESE,107,4.0,4.0,48,0.00,,,0.00,Wunderground v.1.15,2013-02-18 16:50:00,
2013-02-18 11:56:00,49.9,32.5,30.33,SE,130,3.0,5.0,51,0.00,,,0.00,Wunderground v.1.15,2013-02-18 16:56:00,
2013-02-18 12:02:00,49.9,30.5,30.33,SSE,168,3.0,3.0,47,0.00,,,0.00,Wunderground v.1.15,2013-02-18 17:02:00,
2013-02-18 12:08:00,49.9,31.0,30.33,SE,140,4.0,5.0,48,0.00,,,0.00,Wunderground v.1.15,2013-02-18 17:08:00,
2013-02-18 12:14:00,50.4,32.4,30.34,SE,143,3.0,3.0,50,0.00,,,0.00,Wunderground v.1.15,2013-02-18 17:14:00,
2013-02-18 12:20:00,50.5,31.5,30.34,South,169,3.0,3.0,48,0.00,,,0.00,Wunderground v.1.15,2013-02-18 17:20:00,
2013-02-18 12:26:00,50.5,32.5,30.34,SSE,164,3.0,3.0,50,0.00,,,0.00,Wunderground v.1.15,2013-02-18 17:26:00,
2013-02-18 12:32:00,51.0,32.5,30.33,SE,133,3.0,4.0,49,0.00,,,0.00,Wunderground v.1.15,2013-02-18 17:32:00,
2013-02-18 12:38:00,51.1,31.6,30.33,ESE,114,3.0,8.0,47,0.00,,,0.00,Wunderground v.1.15,2013-02-18 17:38:00,
2013-02-18 12:44:00,50.8,30.2,30.33,SSE,147,3.0,3.0,45,0.00,,,0.00,Wunderground v.1.15,2013-02-18 17:44:00,
2013-02-18 12:50:00,51.0,33.0,30.33,SE,124,3.0,3.0,50,0.00,,,0.00,Wunderground v.1.15,2013-02-18 17:50:00,
2013-02-18 12:56:00,51.1,30.5,30.33,SE,124,3.0,8.0,45,0.00,,,0.00,Wunderground v.1.15,2013-02-18 17:56:00,
2013-02-18 13:02:00,51.0,32.0,30.31,SE,124,3.0,6.0,48,0.00,,,0.00,Wunderground v.1.15,2013-02-18 18:02:00,
2013-02-18 13:08:00,51.0,31.5,30.31,ESE,106,3.0,6.0,47,0.00,,,0.00,Wunderground v.1.15,2013-02-18 18:08:00,
2013-02-18 13:14:00,50.7,31.2,30.31,ESE,110,3.0,3.0,47,0.00,,,0.00,Wunderground v.1.15,2013-02-18 18:14:00,
2013-02-18 13:20:00,50.8,30.7,30.31,South,176,3.0,3.0,46,0.00,,,0.00,Wunderground v.1.15,2013-02-18 18:20:00,
2013-02-18 13:26:00,50.7,31.7,30.31,SE,130,3.0,5.0,48,0.00,,,0.00,Wunderground v.1.15,2013-02-18 18:26:00,
2013-02-18 13:32:00,50.5,30.5,30.30,SE,124,4.0,4.0,46,0.00,,,0.00,Wunderground v.1.15,2013-02-18 18:32:00,
2013-02-18 13:38:00,50.8,29.1,30.30,ESE,113,4.0,10.0,43,0.00,,,0.00,Wunderground v.1.15,2013-02-18 18:38:00,
2013-02-18 13:44:00,50.8,31.3,30.30,SE,140,4.0,6.0,47,0.00,,,0.00,Wunderground v.1.15,2013-02-18 18:44:00,
2013-02-18 13:50:00,50.7,31.7,30.30,SSE,157,3.0,3.0,48,0.00,,,0.00,Wunderground v.1.15,2013-02-18 18:50:00,
2013-02-18 13:56:00,51.0,29.3,30.30,SSE,150,3.0,3.0,43,0.00,,,0.00,Wunderground v.1.15,2013-02-18 18:56:00,
2013-02-18 14:02:00,50.8,28.5,30.30,ESE,109,3.0,6.0,42,0.00,,,0.00,Wunderground v.1.15,2013-02-18 19:02:00,
2013-02-18 14:08:00,51.3,31.7,30.30,SSE,167,3.0,7.0,47,0.00,,,0.00,Wunderground v.1.15,2013-02-18 19:08:00,
2013-02-18 14:14:00,51.0,32.0,30.29,South,172,4.0,6.0,48,0.00,,,0.00,Wunderground v.1.15,2013-02-18 19:14:00,
2013-02-18 14:20:00,51.0,30.9,30.29,SSE,150,4.0,5.0,46,0.00,,,0.00,Wunderground v.1.15,2013-02-18 19:20:00,
2013-02-18 14:26:00,51.1,31.6,30.29,SSE,150,4.0,10.0,47,0.00,,,0.00,Wunderground v.1.15,2013-02-18 19:26:00,
2013-02-18 14:32:00,51.3,30.7,30.28,ESE,110,5.0,7.0,45,0.00,,,0.00,Wunderground v.1.15,2013-02-18 19:32:00,
2013-02-18 14:38:00,51.0,31.5,30.28,ESE,117,5.0,7.0,47,0.00,,,0.00,Wunderground v.1.15,2013-02-18 19:38:00,
2013-02-18 14:44:00,51.4,31.3,30.28,SSE,147,5.0,10.0,46,0.00,,,0.00,Wunderground v.1.15,2013-02-18 19:44:00,
2013-02-18 14:50:00,51.1,32.1,30.28,ESE,123,4.0,4.0,48,0.00,,,0.00,Wunderground v.1.15,2013-02-18 19:50:00,
2013-02-18 14:56:00,51.3,31.2,30.28,SE,138,4.0,6.0,46,0.00,,,0.00,Wunderground v.1.15,2013-02-18 19:56:00,
2013-02-18 15:02:00,50.7,32.7,30.28,ESE,123,4.0,7.0,50,0.00,,,0.00,Wunderground v.1.15,2013-02-18 20:02:00,
2013-02-18 15:08:00,51.0,32.0,30.28,ESE,119,4.0,7.0,48,0.00,,,0.00,Wunderground v.1.15,2013-02-18 20:08:00,
2013-02-18 15:14:00,51.1,31.0,30.27,SSE,167,4.0,6.0,46,0.00,,,0.00,Wunderground v.1.15,2013-02-18 20:14:00,
2013-02-18 15:20:00,50.4,31.4,30.27,SSE,151,5.0,5.0,48,0.00,,,0.00,Wunderground v.1.15,2013-02-18 20:20:00,
2013-02-18 15:26:00,50.4,32.9,30.27,SE,145,4.0,6.0,51,0.00,,,0.00,Wunderground v.1.15,2013-02-18 20:26:00,
2013-02-18 15:32:00,50.5,31.0,30.28,SSE,151,3.0,6.0,47,0.00,,,0.00,Wunderground v.1.15,2013-02-18 20:32:00,
2013-02-18 15:38:00,50.4,33.4,30.28,SE,134,4.0,6.0,52,0.00,,,0.00,Wunderground v.1.15,2013-02-18 20:38:00,
2013-02-18 15:44:00,50.5,33.0,30.27,SSE,168,4.0,4.0,51,0.00,,,0.00,Wunderground v.1.15,2013-02-18 20:44:00,
2013-02-18 15:50:00,50.7,32.2,30.27,SE,131,4.0,4.0,49,0.00,,,0.00,Wunderground v.1.15,2013-02-18 20:50:00,
2013-02-18 15:56:00,50.7,32.7,30.27,SSE,147,4.0,5.0,50,0.00,,,0.00,Wunderground v.1.15,2013-02-18 20:56:00,
2013-02-18 16:04:00,50.7,32.7,30.28,South,169,4.0,5.0,50,0.00,,,0.00,Wunderground v.1.15,2013-02-18 21:04:00,
2013-02-18 16:10:00,50.4,31.9,30.28,South,171,4.0,4.0,49,0.00,,,0.00,Wunderground v.1.15,2013-02-18 21:10:00,
2013-02-18 16:16:00,50.1,33.1,30.27,SE,127,4.0,5.0,52,0.00,,,0.00,Wunderground v.1.15,2013-02-18 21:16:00,
2013-02-18 16:22:00,49.9,33.0,30.27,SSE,168,3.0,3.0,52,0.00,,,0.00,Wunderground v.1.15,2013-02-18 21:22:00,
2013-02-18 16:28:00,49.8,32.9,30.27,SE,137,3.0,7.0,52,0.00,,,0.00,Wunderground v.1.15,2013-02-18 21:28:00,
2013-02-18 16:34:00,49.9,32.5,30.27,SSE,164,3.0,3.0,51,0.00,,,0.00,Wunderground v.1.15,2013-02-18 21:34:00,
2013-02-18 16:40:00,50.1,33.6,30.27,SSE,154,2.0,3.0,53,0.00,,,0.00,Wunderground v.1.15,2013-02-18 21:40:00,
2013-02-18 16:48:00,49.9,33.9,30.27,SSE,161,2.0,5.0,54,0.00,,,0.00,Wunderground v.1.15,2013-02-18 21:48:00,
2013-02-18 16:54:00,50.1,33.1,30.27,SSE,154,3.0,3.0,52,0.00,,,0.00,Wunderground v.1.15,2013-02-18 21:54:00,
2013-02-18 17:00:00,49.8,32.4,30.27,South,191,3.0,3.0,51,0.00,,,0.00,Wunderground v.1.15,2013-02-18 22:00:00,
2013-02-18 17:06:00,49.6,33.2,30.27,SSE,157,3.0,3.0,53,0.00,,,0.00,Wunderground v.1.15,2013-02-18 22:06:00,
2013-02-18 17:12:00,49.4,33.4,30.27,SSE,165,2.0,3.0,54,0.00,,,0.00,Wunderground v.1.15,2013-02-18 22:12:00,
2013-02-18 17:18:00,49.2,34.2,30.27,SSW,192,2.0,3.0,56,0.00,,,0.00,Wunderground v.1.15,2013-02-18 22:18:00,
2013-02-18 17:24:00,49.4,33.9,30.27,SSE,161,2.0,5.0,55,0.00,,,0.00,Wunderground v.1.15,2013-02-18 22:24:00,
2013-02-18 17:30:00,49.5,33.1,30.27,South,181,3.0,3.0,53,0.00,,,0.00,Wunderground v.1.15,2013-02-18 22:30:00,
2013-02-18 17:36:00,49.5,33.5,30.27,SSE,162,2.0,3.0,54,0.00,,,0.00,Wunderground v.1.15,2013-02-18 22:36:00,
2013-02-18 17:42:00,49.4,33.9,30.27,SE,126,3.0,3.0,55,0.00,,,0.00,Wunderground v.1.15,2013-02-18 22:42:00,
2013-02-18 17:48:00,48.8,33.3,30.27,South,191,2.0,3.0,55,0.00,,,0.00,Wunderground v.1.15,2013-02-18 22:48:00,
2013-02-18 17:54:00,48.5,34.4,30.27,South,181,2.0,3.0,58,0.00,,,0.00,Wunderground v.1.15,2013-02-18 22:54:00,
2013-02-18 18:00:00,48.0,34.3,30.27,SSE,162,2.0,2.0,59,0.00,,,0.00,Wunderground v.1.15,2013-02-18 23:00:00,
2013-02-18 18:06:00,47.6,34.4,30.27,South,172,2.0,3.0,60,0.00,,,0.00,Wunderground v.1.15,2013-02-18 23:06:00,
2013-02-18 18:12:00,47.3,34.5,30.27,SSE,161,2.0,5.0,61,0.00,,,0.00,Wunderground v.1.15,2013-02-18 23:12:00,
2013-02-18 18:18:00,46.8,34.5,30.26,SSW,202,2.0,5.0,62,0.00,,,0.00,Wunderground v.1.15,2013-02-18 23:18:00,
2013-02-18 18:24:00,46.8,34.9,30.26,SSW,193,2.0,2.0,63,0.00,,,0.00,Wunderground v.1.15,2013-02-18 23:24:00,
2013-02-18 18:30:00,46.5,35.0,30.26,South,191,1.0,1.0,64,0.00,,,0.00,Wunderground v.1.15,2013-02-18 23:30:00,
2013-02-18 18:36:00,46.1,35.0,30.26,South,191,1.0,2.0,65,0.00,,,0.00,Wunderground v.1.15,2013-02-18 23:36:00,
2013-02-18 18:42:00,46.0,34.9,30.26,South,191,1.0,1.0,65,0.00,,,0.00,Wunderground v.1.15,2013-02-18 23:42:00,
2013-02-18 18:48:00,46.0,34.5,30.25,South,191,1.0,2.0,64,0.00,,,0.00,Wunderground v.1.15,2013-02-18 23:48:00,
2013-02-18 18:54:00,46.2,34.7,30.25,South,191,1.0,2.0,64,0.00,,,0.00,Wunderground v.1.15,2013-02-18 23:54:00,
2013-02-18 19:00:00,46.2,35.5,30.25,South,189,1.0,2.0,66,0.00,,,0.00,Wunderground v.1.15,2013-02-19 00:00:00,
2013-02-18 19:06:00,45.5,35.9,30.25,South,189,1.0,2.0,69,0.00,,,0.00,Wunderground v.1.15,2013-02-19 00:06:00,
2013-02-18 19:12:00,45.2,35.6,30.25,South,189,0.0,1.0,69,0.00,,,0.00,Wunderground v.1.15,2013-02-19 00:12:00,
2013-02-18 19:18:00,45.4,35.5,30.25,South,189,1.0,2.0,68,0.00,,,0.00,Wunderground v.1.15,2013-02-19 00:18:00,
2013-02-18 19:24:00,45.7,35.0,30.25,South,186,1.0,2.0,66,0.00,,,0.00,Wunderground v.1.15,2013-02-19 00:24:00,
2013-02-18 19:30:00,45.5,35.2,30.24,South,186,1.0,1.0,67,0.00,,,0.00,Wunderground v.1.15,2013-02-19 00:30:00,
2013-02-18 19:36:00,45.7,35.4,30.24,South,186,1.0,1.0,67,0.00,,,0.00,Wunderground v.1.15,2013-02-19 00:36:00,
2013-02-18 19:42:00,45.5,35.2,30.24,South,184,1.0,2.0,67,0.00,,,0.00,Wunderground v.1.15,2013-02-19 00:42:00,
2013-02-18 19:48:00,45.7,35.4,30.24,South,184,1.0,2.0,67,0.00,,,0.00,Wunderground v.1.15,2013-02-19 00:48:00,
2013-02-18 19:54:00,45.5,35.5,30.24,South,179,1.0,2.0,68,0.00,,,0.00,Wunderground v.1.15,2013-02-19 00:54:00,
2013-02-18 20:00:00,45.2,35.6,30.24,South,176,1.0,2.0,69,0.00,,,0.00,Wunderground v.1.15,2013-02-19 01:00:00,
2013-02-18 20:06:00,44.9,35.7,30.24,South,176,1.0,2.0,70,0.00,,,0.00,Wunderground v.1.15,2013-02-19 01:06:00,
2013-02-18 20:12:00,44.8,36.0,30.24,South,175,2.0,2.0,71,0.00,,,0.00,Wunderground v.1.15,2013-02-19 01:12:00,
2013-02-18 20:18:00,45.1,36.3,30.24,South,174,2.0,3.0,71,0.00,,,0.00,Wunderground v.1.15,2013-02-19 01:18:00,
2013-02-18 20:24:00,45.4,36.5,30.24,South,174,2.0,3.0,71,0.00,,,0.00,Wunderground v.1.15,2013-02-19 01:24:00,
2013-02-18 20:30:00,45.7,36.8,30.24,South,174,1.0,1.0,71,0.00,,,0.00,Wunderground v.1.15,2013-02-19 01:30:00,
2013-02-18 20:36:00,45.7,37.2,30.24,South,171,1.0,2.0,72,0.00,,,0.00,Wunderground v.1.15,2013-02-19 01:36:00,
2013-02-18 20:42:00,45.8,37.3,30.24,South,171,2.0,2.0,72,0.00,,,0.00,Wunderground v.1.15,2013-02-19 01:42:00,
2013-02-18 20:50:00,45.5,37.0,30.23,SSE,161,2.0,2.0,72,0.00,,,0.00,Wunderground v.1.15,2013-02-19 01:50:00,
2013-02-18 21:00:00,45.5,37.0,30.22,SSE,151,2.0,2.0,72,0.00,,,0.00,Wunderground v.1.15,2013-02-19 02:00:00,
2013-02-18 21:06:00,45.5,37.3,30.22,SSE,150,2.0,3.0,73,0.00,,,0.00,Wunderground v.1.15,2013-02-19 02:06:00,
2013-02-18 21:12:00,45.7,37.5,30.22,SSE,147,2.0,3.0,73,0.00,,,0.00,Wunderground v.1.15,2013-02-19 02:12:00,
2013-02-18 21:18:00,45.5,37.3,30.22,SE,136,2.0,3.0,73,0.00,,,0.00,Wunderground v.1.15,2013-02-19 02:18:00,
2013-02-18 21:24:00,45.5,37.7,30.22,SE,136,2.0,4.0,74,0.00,,,0.00,Wunderground v.1.15,2013-02-19 02:24:00,
2013-02-18 21:30:00,45.5,37.3,30.21,SE,133,3.0,3.0,73,0.00,,,0.00,Wunderground v.1.15,2013-02-19 02:30:00,
2013-02-18 21:36:00,45.7,37.2,30.21,SE,131,2.0,3.0,72,0.00,,,0.00,Wunderground v.1.15,2013-02-19 02:36:00,
2013-02-18 21:42:00,45.8,37.6,30.21,SE,141,2.0,3.0,73,0.00,,,0.00,Wunderground v.1.15,2013-02-19 02:42:00,
2013-02-18 21:48:00,45.8,37.6,30.21,SE,136,2.0,3.0,73,0.00,,,0.00,Wunderground v.1.15,2013-02-19 02:48:00,
2013-02-18 21:54:00,46.0,37.8,30.21,SE,138,1.0,2.0,73,0.00,,,0.00,Wunderground v.1.15,2013-02-19 02:54:00,
2013-02-18 22:00:00,45.7,38.2,30.20,SE,138,0.0,0.0,75,0.00,,,0.00,Wunderground v.1.15,2013-02-19 03:00:00,
2013-02-18 22:06:00,45.4,38.3,30.20,SE,134,0.0,0.0,76,0.00,,,0.00,Wunderground v.1.15,2013-02-19 03:06:00,
2013-02-18 22:14:00,45.2,38.4,30.20,SE,130,0.0,0.0,77,0.00,,,0.00,Wunderground v.1.15,2013-02-19 03:14:00,
2013-02-18 22:20:00,45.2,38.7,30.20,SE,130,0.0,0.0,78,0.00,,,0.00,Wunderground v.1.15,2013-02-19 03:20:00,
2013-02-18 22:26:00,45.2,39.1,30.20,SE,128,0.0,0.0,79,0.00,,,0.00,Wunderground v.1.15,2013-02-19 03:26:00,
2013-02-18 22:32:00,45.2,39.1,30.19,SE,127,0.0,0.0,79,0.00,,,0.00,Wunderground v.1.15,2013-02-19 03:32:00,
2013-02-18 22:38:00,45.1,39.3,30.19,SE,128,0.0,0.0,80,0.00,,,0.00,Wunderground v.1.15,2013-02-19 03:38:00,
2013-02-18 22:44:00,44.9,39.4,30.18,SE,134,0.0,0.0,81,0.00,,,0.00,Wunderground v.1.15,2013-02-19 03:44:00,
2013-02-18 22:50:00,45.1,39.6,30.18,SE,131,0.0,0.0,81,0.00,,,0.00,Wunderground v.1.15,2013-02-19 03:50:00,
2013-02-18 22:56:00,45.1,39.9,30.18,SE,131,0.0,0.0,82,0.00,,,0.00,Wunderground v.1.15,2013-02-19 03:56:00,
2013-02-18 23:02:00,45.7,40.2,30.19,SE,127,0.0,0.0,81,0.00,,,0.00,Wunderground v.1.15,2013-02-19 04:02:00,
2013-02-18 23:08:00,45.7,40.2,30.19,SE,136,0.0,0.0,81,0.00,,,0.00,Wunderground v.1.15,2013-02-19 04:08:00,
2013-02-18 23:14:00,45.7,40.5,30.18,SE,127,0.0,0.0,82,0.00,,,0.00,Wunderground v.1.15,2013-02-19 04:14:00,
2013-02-18 23:20:00,46.1,40.9,30.18,ESE,119,0.0,0.0,82,0.00,,,0.00,Wunderground v.1.15,2013-02-19 04:20:00,
2013-02-18 23:26:00,46.7,42.7,30.18,ESE,117,0.0,0.0,86,0.00,,,0.00,Wunderground v.1.15,2013-02-19 04:26:00,
2013-02-18 23:32:00,47.0,43.3,30.17,ESE,114,0.0,0.0,87,0.00,,,0.00,Wunderground v.1.15,2013-02-19 04:32:00,
2013-02-18 23:38:00,47.1,43.7,30.17,ESE,114,0.0,0.0,88,0.00,,,0.00,Wunderground v.1.15,2013-02-19 04:38:00,
2013-02-18 23:44:00,47.0,43.9,30.17,ESE,113,0.0,0.0,89,0.00,,,0.00,Wunderground v.1.15,2013-02-19 04:44:00,
2013-02-18 23:50:00,46.8,43.7,30.17,ESE,113,0.0,0.0,89,0.00,,,0.00,Wunderground v.1.15,2013-02-19 04:50:00,
2013-02-18 23:56:00,47.3,44.5,30.17,ESE,113,0.0,0.0,90,0.00,,,0.00,Wunderground v.1.15,2013-02-19 04:56:00,